When you browse on this site, cookies collect data to enhance your experience and personalize the content and advertising you see.
Visit our Privacy Policy to learn more. By continuing to use the site, you agree to this use of cookies and data.
  • în România
  • Lista ţărilor
  • Pe 7 zile
  • Temperatura apei
  • Meteo pe hartă
  • Widget-uri
  • user-avatar
    Intrare

    Meteo pe oră la Shaki

    Astăzi, 25 August, Duminică

    Timp Temperatura Precipitaţii Vânt Presiune Umiditate
    00:00 +27°C° 0 mm 2 m/s 734 mmHg 31%
    01:00 +27°C° 0 mm 2 m/s 734 mmHg 32%
    02:00 +26°C° 0 mm 1 m/s 734 mmHg 32%
    03:00 +26°C° 0 mm 1 m/s 734 mmHg 33%
    04:00 +26°C° 0 mm 1 m/s 734 mmHg 33%
    05:00 +26°C° 0 mm 1 m/s 734 mmHg 34%
    06:00 +24°C° 0 mm 0 m/s 734 mmHg 34%
    07:00 +29°C° 0 mm 1 m/s 735 mmHg 31%
    08:00 +31°C° 0 mm 1 m/s 735 mmHg 28%
    09:00 +34°C° 0 mm 2 m/s 735 mmHg 24%
    10:00 +35°C° 0 mm 2 m/s 735 mmHg 23%
    11:00 +36°C° 0 mm 3 m/s 734 mmHg 21%
    12:00 +37°C° 0 mm 3 m/s 734 mmHg 19%
    13:00 +38°C° 0 mm 3 m/s 734 mmHg 18%
    14:00 +38°C° 0 mm 3 m/s 734 mmHg 17%
    15:00 +39°C° 0 mm 3 m/s 734 mmHg 16%
    16:00 +38°C° 0 mm 3 m/s 734 mmHg 18%
    17:00 +37°C° 0 mm 3 m/s 734 mmHg 19%
    18:00 +35°C° 0 mm 2 m/s 734 mmHg 21%
    19:00 +33°C° 0 mm 3 m/s 734 mmHg 22%
    20:00 +30°C° 0 mm 3 m/s 734 mmHg 24%
    21:00 +28°C° 0 mm 4 m/s 735 mmHg 25%
    22:00 +27°C° 0 mm 3 m/s 735 mmHg 27%
    23:00 +27°C° 0 mm 2 m/s 735 mmHg 29%

    Mâine, 26 August, Luni

    Timp Temperatura Precipitaţii Vânt Presiune Umiditate
    00:00 +26°C° 0 mm 2 m/s 735 mmHg 31%
    01:00 +26°C° 0 mm 1 m/s 735 mmHg 32%
    02:00 +25°C° 0 mm 1 m/s 735 mmHg 33%
    03:00 +24°C° 0 mm 1 m/s 735 mmHg 35%
    04:00 +24°C° 0 mm 1 m/s 735 mmHg 36%
    05:00 +22°C° 0 mm 0 m/s 735 mmHg 37%
    06:00 +22°C° 0 mm 0 m/s 736 mmHg 38%
    07:00 +26°C° 0 mm 1 m/s 736 mmHg 33%
    08:00 +29°C° 0 mm 2 m/s 736 mmHg 28%
    09:00 +31°C° 0 mm 2 m/s 736 mmHg 23%
    10:00 +33°C° 0 mm 3 m/s 736 mmHg 22%
    11:00 +34°C° 0 mm 3 m/s 736 mmHg 21%
    12:00 +35°C° 0 mm 3 m/s 736 mmHg 19%
    13:00 +36°C° 0 mm 3 m/s 736 mmHg 19%
    14:00 +36°C° 0 mm 3 m/s 735 mmHg 18%
    15:00 +37°C° 0 mm 3 m/s 735 mmHg 17%
    16:00 +36°C° 0 mm 3 m/s 735 mmHg 18%
    17:00 +34°C° 0 mm 3 m/s 736 mmHg 19%
    18:00 +33°C° 0 mm 4 m/s 736 mmHg 21%
    19:00 +30°C° 0 mm 4 m/s 736 mmHg 25%
    20:00 +28°C° 0 mm 4 m/s 737 mmHg 29%
    21:00 +27°C° 0 mm 4 m/s 737 mmHg 33%
    22:00 +26°C° 0 mm 4 m/s 737 mmHg 37%
    23:00 +25°C° 0 mm 3 m/s 737 mmHg 40%

    Poimâine, 27 August, Marţi

    Timp Temperatura Precipitaţii Vânt Presiune Umiditate
    00:00 +24°C° 0 mm 2 m/s 737 mmHg 43%
    01:00 +24°C° 0 mm 2 m/s 737 mmHg 43%
    02:00 +24°C° 0 mm 2 m/s 737 mmHg 44%
    03:00 +25°C° 0 mm 2 m/s 737 mmHg 44%
    04:00 +24°C° 0 mm 2 m/s 737 mmHg 46%
    05:00 +24°C° 0 mm 2 m/s 737 mmHg 49%
    06:00 +24°C° 0 mm 2 m/s 737 mmHg 51%
    07:00 +25°C° 0.1 mm 2 m/s 737 mmHg 49%
    08:00 +27°C° 0.1 mm 3 m/s 737 mmHg 48%
    09:00 +28°C° 0.1 mm 3 m/s 736 mmHg 46%
    10:00 +29°C° 0 mm 3 m/s 736 mmHg 41%
    11:00 +31°C° 0 mm 3 m/s 736 mmHg 37%
    12:00 +33°C° 0 mm 3 m/s 735 mmHg 32%
    13:00 +34°C° 0 mm 3 m/s 735 mmHg 31%
    14:00 +34°C° 0 mm 3 m/s 734 mmHg 29%
    15:00 +35°C° 0 mm 3 m/s 734 mmHg 28%
    16:00 +34°C° 0 mm 3 m/s 734 mmHg 30%
    17:00 +33°C° 0 mm 3 m/s 734 mmHg 32%
    18:00 +31°C° 0 mm 3 m/s 734 mmHg 34%
    19:00 +30°C° 0 mm 3 m/s 734 mmHg 37%
    20:00 +28°C° 0 mm 3 m/s 734 mmHg 41%
    21:00 +26°C° 0 mm 4 m/s 734 mmHg 44%
    22:00 +26°C° 0 mm 3 m/s 734 mmHg 47%
    23:00 +25°C° 0 mm 3 m/s 734 mmHg 50%

    28 August, Miercuri

    Timp Temperatura Precipitaţii Vânt Presiune Umiditate
    00:00 +25°C° 0 mm 2 m/s 733 mmHg 52%
    01:00 +24°C° 0 mm 2 m/s 733 mmHg 54%
    02:00 +24°C° 0 mm 1 m/s 733 mmHg 56%
    03:00 +21°C° 0 mm 0 m/s 733 mmHg 57%
    04:00 +21°C° 0 mm 0 m/s 733 mmHg 58%
    05:00 +23°C° 0 mm 1 m/s 733 mmHg 58%
    06:00 +23°C° 0 mm 1 m/s 733 mmHg 58%
    07:00 +25°C° 0 mm 1 m/s 733 mmHg 52%
    08:00 +27°C° 0 mm 2 m/s 733 mmHg 47%
    09:00 +29°C° 0 mm 2 m/s 733 mmHg 42%
    10:00 +30°C° 0 mm 2 m/s 733 mmHg 39%
    11:00 +32°C° 0 mm 2 m/s 733 mmHg 36%
    12:00 +34°C° 0 mm 2 m/s 733 mmHg 33%
    13:00 +35°C° 0 mm 3 m/s 733 mmHg 32%
    14:00 +35°C° 0 mm 3 m/s 732 mmHg 31%
    15:00 +36°C° 0 mm 3 m/s 732 mmHg 30%
    16:00 +35°C° 0 mm 3 m/s 732 mmHg 32%
    17:00 +34°C° 0 mm 2 m/s 732 mmHg 34%
    18:00 +31°C° 0 mm 2 m/s 733 mmHg 36%
    19:00 +30°C° 0 mm 3 m/s 733 mmHg 44%
    20:00 +28°C° 0 mm 5 m/s 733 mmHg 51%
    21:00 +26°C° 0 mm 6 m/s 734 mmHg 59%
    22:00 +25°C° 0 mm 5 m/s 734 mmHg 62%
    23:00 +23°C° 0 mm 4 m/s 734 mmHg 64%

    29 August, Joi

    Timp Temperatura Precipitaţii Vânt Presiune Umiditate
    00:00 +22°C° 0 mm 4 m/s 734 mmHg 67%
    01:00 +22°C° 0 mm 3 m/s 734 mmHg 69%
    02:00 +23°C° 0 mm 2 m/s 734 mmHg 71%
    03:00 +21°C° 0 mm 2 m/s 734 mmHg 73%
    04:00 +22°C° 0 mm 1 m/s 734 mmHg 72%
    05:00 +23°C° 0 mm 1 m/s 735 mmHg 71%
    06:00 +23°C° 0 mm 1 m/s 735 mmHg 70%
    07:00 +25°C° 0 mm 1 m/s 735 mmHg 63%
    08:00 +27°C° 0 mm 2 m/s 735 mmHg 55%
    09:00 +28°C° 0 mm 2 m/s 735 mmHg 48%
    10:00 +30°C° 0 mm 3 m/s 734 mmHg 45%
    11:00 +31°C° 0 mm 3 m/s 734 mmHg 41%
    12:00 +33°C° 0 mm 3 m/s 734 mmHg 38%
    13:00 +34°C° 0 mm 3 m/s 734 mmHg 36%
    14:00 +34°C° 0 mm 3 m/s 733 mmHg 34%
    15:00 +35°C° 0 mm 3 m/s 733 mmHg 33%
    16:00 +34°C° 0 mm 3 m/s 733 mmHg 34%
    17:00 +33°C° 0 mm 4 m/s 733 mmHg 35%
    18:00 +33°C° 0 mm 4 m/s 733 mmHg 36%
    19:00 +29°C° 0 mm 4 m/s 734 mmHg 41%
    20:00 +27°C° 0 mm 5 m/s 734 mmHg 46%
    21:00 +24°C° 0 mm 6 m/s 735 mmHg 51%
    22:00 +25°C° 0 mm 5 m/s 735 mmHg 56%
    23:00 +23°C° 0 mm 4 m/s 734 mmHg 61%

    30 August, Vineri

    Timp Temperatura Precipitaţii Vânt Presiune Umiditate
    00:00 +22°C° 0 mm 4 m/s 734 mmHg 65%
    01:00 +22°C° 0.1 mm 3 m/s 734 mmHg 70%
    02:00 +21°C° 0.1 mm 3 m/s 734 mmHg 74%
    03:00 +20°C° 0.1 mm 2 m/s 734 mmHg 79%
    04:00 +20°C° 0.1 mm 2 m/s 734 mmHg 79%
    05:00 +20°C° 0.1 mm 2 m/s 734 mmHg 79%
    06:00 +20°C° 0.1 mm 2 m/s 734 mmHg 79%
    07:00 +21°C° 0.1 mm 2 m/s 734 mmHg 75%
    08:00 +23°C° 0.1 mm 2 m/s 734 mmHg 70%
    09:00 +24°C° 0.1 mm 3 m/s 734 mmHg 65%
    10:00 +24°C° 0.3 mm 3 m/s 734 mmHg 69%
    11:00 +22°C° 0.3 mm 3 m/s 734 mmHg 72%
    12:00 +22°C° 0.3 mm 3 m/s 734 mmHg 76%
    13:00 +24°C° 0.1 mm 3 m/s 734 mmHg 72%
    14:00 +25°C° 0.1 mm 3 m/s 734 mmHg 68%
    15:00 +26°C° 0.1 mm 3 m/s 734 mmHg 64%
    16:00 +25°C° 0.1 mm 3 m/s 734 mmHg 67%
    17:00 +24°C° 0.1 mm 3 m/s 734 mmHg 70%
    18:00 +23°C° 0.1 mm 2 m/s 734 mmHg 73%
    19:00 +23°C° 0.4 mm 2 m/s 734 mmHg 78%
    20:00 +21°C° 0.4 mm 2 m/s 734 mmHg 82%
    21:00 +20°C° 0.4 mm 2 m/s 735 mmHg 86%
    22:00 +20°C° 0.3 mm 2 m/s 735 mmHg 86%
    23:00 +20°C° 0.3 mm 2 m/s 734 mmHg 86%
    Arată mai mult